Airfield :







YOU CAN JOIN US ON...

 
LOGIN :

Register | Disclaimer

   EN    FR    IT 

 









Legend :    VFR   Marginal VFR   IFR   Intensive IFR   Very Intensive IFR
Visi :
Ceiling :
>= 8 km
>= 3000ft
5 to 8 km
1000 to 3000 ft
1500m to 5 km
500 to 1000 ft
800 to 1500m
200 to 500 ft
< 800m
< 200 ft
Symbols :   Thunderstorms  Fog  Heavy snow  Heavy precipitations  Wind > 20 kt






- Airport Elevation : 117 ft
- IATA code : KUS


BGKK - Kulusuk

CURRENT METAR :
  • 241050Z 07010KT 9999 FEW100 M08/M19 Q0994

EXPIRED METARs :
  • 240950Z AUTO VRB01KT 9999NDV FEW140/// SCT160/// M09/M17 Q0994
  • 240850Z AUTO 12004KT 070V160 9999NDV FEW190/// M11/M18 Q0993

Expired Forecast.



MET'MAP, your aeronautical weather chart ! - Copyright ORBIFLY December 2007 - Disclaimer

ORBIFLY MET'MAP TEAM :

Programming & Development : Alexandra Zaïnal
Concept & original design : Baudouin d'Aumeries
Assistance for programming : Marc-Olivier Méhu
Technical & hardware support : Manuel Goepfert

Contact : metmap@orbifly.com




SOURCES & CREDITS :

   NOAA